Weather History for EGOM - February, 2013

Change the Weather History Date:

Friday, February 22, 2013

  Actual Average Record
Temperature  
Mean Temperature 31 °F -  
Max Temperature 32 °F - - ()
Min Temperature 30 °F - - ()
Degree Days  
Heating Degree Days 34    
Moisture  
Dew Point 23 °F    
Average Humidity 73    
Maximum Humidity 80    
Minimum Humidity 69    
Precipitation  
Precipitation 0.00 in - - ()
Sea Level Pressure  
Sea Level Pressure 30.22 in    
Wind  
Wind Speed 8 mph ()    
Max Wind Speed 12 mph    
Max Gust Speed -    
Visibility 6.2 miles    
Events      
T = Trace of Precipitation, MM = Missing Value Source: Averaged Metar Reports

Daily Weather History Graph

Daily Weather History Graph

Search for Another Location

Airport or City:

Trip Planner

Search our weather history database for the weather conditions in past years. The results will help you decide how hot, cold, wet, or windy it might be!

Date:

Astronomy

Feb. 22, 2013 Rise Set
Actual Time 7:16 AM GMT 5:31 PM GMT
Civil Twilight 6:39 AM GMT 6:08 PM GMT
Nautical Twilight 5:57 AM GMT 6:50 PM GMT
Astronomical Twilight 5:15 AM GMT 7:32 PM GMT
Moon 2:07 PM GMT (2/22) 5:15 AM GMT (2/22)
Length of Visible Light 11h 28m
Length of Day
10h 14m
Waxing Gibbous, 89% of the Moon is Illuminated
Feb 22
Waxing Gibbous
Feb 25
Full
Mar 4
Last Quarter
Mar 11
New
Mar 19
First Quarter

Hourly Weather History & Observations

Time (GMT) Temp. Windchill Dew Point Humidity Pressure Visibility Wind Dir Wind Speed Gust Speed Precip Events Conditions
12:50 AM 30.2 °F 21.9 °F 21.2 °F 69% 30.24 in 6.2 mi ESE 9.2 mph - N/A   Overcast
1:50 AM 30.2 °F 21.9 °F 21.2 °F 69% 30.24 in 6.2 mi ESE 9.2 mph - N/A   Overcast
2:50 AM 30.2 °F 21.3 °F 21.2 °F 69% 30.21 in 6.2 mi ESE 10.4 mph - N/A   Overcast
3:50 AM 30.2 °F 21.3 °F 21.2 °F 69% 30.21 in 6.2 mi East 10.4 mph - N/A   Overcast
4:50 AM 30.2 °F 21.9 °F 23.0 °F 75% 30.21 in 6.2 mi East 9.2 mph - N/A   Overcast
5:50 AM 30.2 °F 23.4 °F 23.0 °F 75% 30.21 in 6.2 mi East 6.9 mph - N/A   Overcast
6:50 AM 30.2 °F 24.3 °F 23.0 °F 75% 30.21 in 6.2 mi ENE 5.8 mph - N/A   Overcast
7:50 AM 30.2 °F 23.4 °F 23.0 °F 75% 30.21 in 6.2 mi ENE 6.9 mph - N/A   Overcast
8:50 AM 30.2 °F 22.6 °F 23.0 °F 75% 30.24 in 6.2 mi East 8.1 mph - N/A   Overcast
9:50 AM 32.0 °F 23.0 °F 23.0 °F 69% 30.24 in 6.2 mi East 11.5 mph - N/A   Overcast
10:50 AM 32.0 °F 23.6 °F 23.0 °F 69% 30.24 in 6.2 mi East 10.4 mph - N/A   Overcast
11:50 AM 32.0 °F 23.0 °F 23.0 °F 69% 30.24 in 6.2 mi East 11.5 mph - N/A   Overcast
12:50 PM 32.0 °F 23.0 °F 23.0 °F 69% 30.21 in 6.2 mi East 11.5 mph - N/A   Overcast
1:50 PM 32.0 °F 23.0 °F 24.8 °F 75% 30.21 in 6.2 mi East 11.5 mph - N/A   Overcast
2:50 PM 32.0 °F 25.6 °F 24.8 °F 75% 30.21 in 6.2 mi ENE 6.9 mph - N/A   Overcast
3:50 PM 32.0 °F 24.2 °F 24.8 °F 75% 30.21 in 6.2 mi East 9.2 mph - N/A   Mostly Cloudy
4:50 PM 32.0 °F 24.8 °F 23.0 °F 69% 30.21 in 6.2 mi ENE 8.1 mph - N/A   Overcast
5:50 PM 32.0 °F 25.6 °F 23.0 °F 69% 30.21 in 6.2 mi ENE 6.9 mph - N/A   Overcast
6:50 PM 32.0 °F 24.8 °F 24.8 °F 75% 30.21 in 6.2 mi ENE 8.1 mph - N/A   Overcast
7:50 PM 30.2 °F 23.4 °F 24.8 °F 80% 30.21 in 6.2 mi NE 6.9 mph - N/A   Overcast
8:50 PM 30.2 °F 23.4 °F 24.8 °F 80% 30.21 in 6.2 mi NNE 6.9 mph - N/A   Overcast
9:50 PM 30.2 °F 23.4 °F 23.0 °F 75% 30.21 in 6.2 mi NNE 6.9 mph - N/A   Overcast
10:50 PM 30.2 °F 23.4 °F 23.0 °F 75% 30.21 in 6.2 mi NNE 6.9 mph - N/A   Overcast
11:50 PM 32.0 °F 24.8 °F 23.0 °F 69% 30.21 in 6.2 mi NNE 8.1 mph - N/A   Overcast